Waterville, ME

9:05 PM EST on November 16, 2019 (GMT -0500)
Waterville Lafleur

Weather History for KWVL - October, 2019

Change the Weather History Date:

Sunday, October 20, 2019

  Actual Average Record
Temperature  
Mean Temperature 40 °F -  
Max Temperature 54 °F 57 °F 79 °F (1963)
Min Temperature 28 °F 34 °F 19 °F (1978)
Degree Days  
Heating Degree Days 24    
Moisture  
Dew Point 36 °F    
Average Humidity 79    
Maximum Humidity 100    
Minimum Humidity 54    
Precipitation  
Precipitation 0.00 in - - ()
Sea Level Pressure  
Sea Level Pressure 30.15 in    
Wind  
Wind Speed 1 mph (North)    
Max Wind Speed 5 mph    
Max Gust Speed -    
Visibility 10 miles    
Events      
Averages and records for this station are not official NWS values.
T = Trace of Precipitation, MM = Missing Value Source: NWS Daily Summary

Daily Weather History Graph

Daily Weather History Graph

Search for Another Location

Airport or City:

Astronomy

Oct. 20, 2019 Rise Set
Actual Time 6:59 AM EDT 5:46 PM EDT
Civil Twilight 6:30 AM EDT 6:15 PM EDT
Nautical Twilight 5:56 AM EDT 6:49 PM EDT
Astronomical Twilight 5:22 AM EDT 7:23 PM EDT
Moon 10:42 PM EDT (10/20) 1:34 PM EDT (10/20)
Length of Visible Light 11h 45m
Length of Day
10h 46m
Waning Gibbous, 59% of the Moon is Illuminated
Oct 20
Waning Gibbous
Oct 21
Last Quarter
Oct 27
New
Nov 4
First Quarter
Nov 12
Full

Hourly Weather History & Observations

Time (EDT) Temp. Windchill Dew Point Humidity Pressure Visibility Wind Dir Wind Speed Gust Speed Precip Events Conditions
12:56 AM 35.1 °F 32.2 °F 33.1 °F 92% 30.12 in 10.0 mi North 3.5 mph - N/A   Clear
1:56 AM 32.0 °F 27.5 °F 30.0 °F 92% 30.12 in 10.0 mi North 4.6 mph - N/A   Clear
2:56 AM 30.9 °F - 28.9 °F 92% 30.13 in 10.0 mi Calm Calm - N/A   Clear
3:56 AM 30.9 °F - 30.0 °F 96% 30.15 in 10.0 mi Calm Calm - N/A   Clear
4:56 AM 30.0 °F - 28.9 °F 96% 30.16 in 10.0 mi Calm Calm - N/A   Clear
5:56 AM 28.9 °F - 28.0 °F 96% 30.16 in 10.0 mi Calm Calm - N/A   Clear
6:56 AM 28.9 °F - 28.0 °F 96% 30.17 in 10.0 mi Calm Calm - N/A   Clear
7:56 AM 30.0 °F - 28.9 °F 96% 30.18 in 10.0 mi Calm Calm - N/A   Clear
8:56 AM 37.0 °F - 37.0 °F 100% 30.19 in 10.0 mi Calm Calm - N/A   Clear
9:56 AM 43.0 °F - 37.9 °F 82% 30.19 in 10.0 mi Calm Calm - N/A   Clear
10:56 AM 48.9 °F - 37.9 °F 66% 30.18 in 10.0 mi Calm Calm - N/A   Clear
11:56 AM 51.1 °F - 35.1 °F 54% 30.19 in 10.0 mi Variable 3.5 mph - N/A   Clear
12:56 PM 50.0 °F - 36.0 °F 59% 30.18 in 10.0 mi Variable 3.5 mph - N/A   Clear
1:56 PM 53.1 °F - 37.0 °F 55% 30.15 in 10.0 mi Variable 3.5 mph - N/A   Clear
2:56 PM 53.1 °F - 37.0 °F 55% 30.15 in 10.0 mi Variable 3.5 mph - N/A   Clear
3:56 PM 53.1 °F - 37.0 °F 55% 30.15 in 10.0 mi Calm Calm - N/A   Clear
4:56 PM 52.0 °F - 37.9 °F 59% 30.14 in 10.0 mi Calm Calm - N/A   Clear
5:56 PM 48.9 °F - 39.9 °F 71% 30.14 in 9.0 mi Calm Calm - N/A   Clear
6:56 PM 46.9 °F - 39.9 °F 77% 30.14 in 10.0 mi Calm Calm - N/A   Clear
7:56 PM 48.0 °F - 39.9 °F 74% 30.14 in 10.0 mi Calm Calm - N/A   Partly Cloudy
8:56 PM 46.9 °F - 41.0 °F 80% 30.14 in 10.0 mi Calm Calm - N/A   Clear
9:56 PM 46.0 °F - 42.1 °F 86% 30.15 in 10.0 mi Calm Calm - N/A   Clear
10:56 PM 46.0 °F - 42.1 °F 86% 30.15 in 10.0 mi Calm Calm - N/A   Clear
11:56 PM 45.0 °F - 42.1 °F 90% 30.13 in 10.0 mi Calm Calm - N/A   Clear